Find Tian Lian 1-01

NORAD ID: 32779 Int'l Des: 2008-019 Owner: CAST Country: CN operational
HEOCIRCULAR

リアルタイム位置

3D地球を読み込み中...

Tian Lian 1-01について

説明を読み込み中...

次回通過

Passes for default location (London). Set your location on the main map for personalized predictions.

高度履歴

Loading altitude history...

軌道要素

1 32779U 08019A 26104.65536977 -.00000138 00000-0 00000+0 0 9999
2 32779 9.9978 59.9458 0008465 245.1570 120.8776 0.97414905 14745
Epoch: Apr 14, 2026 • Age: 9 hours

現在のステータス

高度 36621.1 km
速度 3.04 km/s
衛星直下点 7.59°N, 16.09°W
打ち上げ日 Apr 25, 2008
運用期間 17.9 years
タイプ other

技術仕様

分類 Payload
質量 2475.00 kg
乾燥質量 1060.00 kg
総質量 2475.00 kg
長さ 6.00 m
直径 1.70 m
スパン 18.10 m
形状 Box + 2 Pan + Dish
製造者 CAST
バスタイプ DFH-3
フェーズステータス In Orbit
所有者/国 CAST/CN

Most Searched